Home   Weather   Garland   Past weeks

Flag for USA Past Weather in Garland, Texas, USA — Yesterday and Last 2 Weeks

Now
70 °F

Sunny.


Feels Like: 70 °F
Forecast: 60 / 76 °F
Wind: 7 mph from North

Location: Mesquite Metro Airport

Current Time: Sep 29, 2016 at 12:02:50 PM

Latest Report: Sep 29, 2016 at 10:50 AM


Visibility: 10 mi

Pressure: 30.30 "Hg

Humidity: 46%

Dew Point: 48 °F

Location of GarlandLocation

Past Weather in Garland — Graph

°F

Garland Temperature Yesterday

Maximum temperature yesterday: 88 °F (at 3:50 PM)
Minimum temperature yesterday: 53 °F (at 6:15 AM)
Average temperature yesterday: 65 °F

High & Low Weather Summary for the Past Weeks

 TemperatureHumidityPressure
High99 °F (Sep 19, 2:50 PM)100% (Sep 15, 6:15 AM)30.30 "Hg (Sep 15, 6:15 AM)
Low53 °F (Sep 28, 6:15 AM)24% (Sep 28, 3:50 PM)29.85 "Hg (Sep 16, 7:50 PM)
Average76 °F77%30.02 "Hg
* Reported Sep 14 10:50 AM — Sep 29 10:50 AM, Garland, Weather by CustomWeather, © 2016

Note: Actual official high and low records may vary slightly from our data, if they occured in-between our weather recording intervals... More about our weather records

Advertising

Garland Weather History for the Previous 24 Hours

Scroll right to see more
 ConditionsComfort  
Time TempWeatherWind HumidityBarometerVisibility
10:50 AM
Thu, Sep 29
70 °FSunny.7 mph46%30.30 "Hg10 mi
9:50 AM66 °FSunny.9 mph56%30.29 "Hg10 mi
8:50 AM63 °FSunny.9 mph64%30.25 "Hg10 mi
7:50 AM61 °FSunny.9 mph68%30.23 "Hg10 mi
6:50 AM63 °FClear.12 mph59%30.21 "Hg10 mi
6:35 AM63 °FClear.10 mph62%30.20 "Hg10 mi
6:15 AM64 °FClear.10 mph61%30.19 "Hg10 mi
5:55 AM64 °FClear.12 mph60%30.19 "Hg10 mi
5:15 AM65 °FClear.9 mph58%30.17 "Hg10 mi
4:55 AM65 °FClear.10 mph58%30.16 "Hg10 mi
4:35 AM65 °FClear.8 mph56%30.16 "Hg10 mi
4:15 AM66 °FClear.13 mph54%30.16 "Hg10 mi
3:55 AM67 °FClear.9 mph53%30.15 "Hg10 mi
3:15 AM68 °FClear.12 mph50%30.13 "Hg10 mi
2:55 AM68 °FClear.9 mph51%30.13 "Hg10 mi
2:35 AM69 °FClear.10 mph48%30.12 "Hg10 mi
2:15 AM70 °FClear.10 mph50%30.12 "Hg10 mi
1:55 AM70 °FClear.8 mph54%30.12 "Hg10 mi
1:35 AM71 °FClear.9 mph55%30.11 "Hg10 mi
1:15 AM71 °FClear.8 mph62%30.10 "Hg10 mi
12:55 AM68 °FClear.6 mph77%30.10 "Hg10 mi
12:20 AM66 °FClear.3 mph81%30.09 "Hg10 mi
11:55 PM
Wed, Sep 28
68 °FClear.5 mph71%30.09 "Hg10 mi
11:35 PM66 °FClear.No wind80%30.08 "Hg10 mi
11:15 PM66 °FClear.3 mph82%30.07 "Hg10 mi
10:55 PM69 °FClear.No wind67%30.07 "Hg10 mi
10:35 PM68 °FClear.No wind70%30.06 "Hg10 mi
10:15 PM69 °FClear.No wind67%30.05 "Hg10 mi
9:55 PM70 °FClear.No wind63%30.05 "Hg10 mi
9:15 PM70 °FClear.No wind63%30.04 "Hg10 mi
7:50 PM75 °FClear.No wind50%30.03 "Hg10 mi
6:50 PM82 °FSunny.3 mph40%30.03 "Hg10 mi
5:50 PM88 °FSunny.3 mph24%30.02 "Hg10 mi
4:50 PM88 °FSunny.5 mph24%30.02 "Hg10 mi
3:50 PM88 °FSunny.5 mph24%30.02 "Hg10 mi
2:50 PM86 °FSunny.3 mph25%30.03 "Hg10 mi
1:50 PM84 °FSunny.5 mph29%30.05 "Hg10 mi
12:50 PM82 °FSunny.No wind30%30.07 "Hg10 mi
Weather by CustomWeather, © 2016

See weather overviewHow to use our weather pages